Погода в Ноф-ха-Галиль

Израиль     32°42′17″N   35°19′32″E
темп.,
°C
ветер,
м/с
пор.,
м/с
влажн.,
%
обл.,
%
осадки,
мм/ч
давл.,
гПа
погр.,
м
21 апреля, ср
ср2100:00+15з46875 0.0 1015178
03:00+14з22890 0.0 101637
06:00+14зсз22865 0.0 101726
09:00+19сз34535 0.0 1018629
12:00+22зсз664032 0.0 1017750
15:00+22зсз894138 0.0 1016678
18:00+19сз68545 0.0 1016462
21:00+14сз4680100 0.0 1018178
22 апреля, чт
чт2200:00+13зсз2286100 0.0 101931
03:00+12сз228970 0.0 101924
06:00+12сз2290100 0.0 101920
09:00+18сз565578 0.0 1019621
12:00+22сз77361 0.0 1019844
15:00+22сз99370 0.0 1018706
18:00+19сз69490 0.0 1017479
21:00+13сз35785 0.0 101979
23 апреля, пт
пт2300:00+12зсз22820 0.0 101913
03:00+11зсз22860 0.0 101818
06:00+11в22840 0.0 101811
09:00+19с01410 0.0 1018372
12:00+26сз23270 0.0 1016926
15:00+25зсз75410 0.0 1014535
18:00+22сз57500 0.0 1013294
21:00+16зсз226410 0.0 101414
24 апреля, сб
сб2400:00+15сз22695 0.0 101411
03:00+16з0155100 0.0 101211
06:00+15зсз226615 0.0 101213
09:00+25в24281 0.0 1011367
12:00+32св242020 0.0 10101176
15:00+31сз64290 0.0 1008557
18:00+26сз69380 0.0 1007268
21:00+18зсз34610 0.0 100967
25 апреля, вс
вс2500:00+17зюз22670 0.0 100922
03:00+15ююз11890 0.0 100911
06:00+15з22830 0.0 100918
09:00+23ююв125486 0.0 1009308
12:00+30зюз333037 0.0 10081141
15:00+27зсз544599 0.0 1007566
18:00+22зсз346075 0.0 1007308
21:00+18з117210 0.0 100711